[[{"header":{"parameterUnit":"m.s-1","parameterCategory":1,"la1":30.2991,"la2":30.254,"lo1":-89.0895,"lo2":-89.0444,"dy":0.0017,"dx":0.0017,"nx":28,"ny":28,"refTime":"2023-09-26T09:00:00:Z","depth":0,"parameterNumber":2,"parameterNumberName":"U-component_of_WINDS"},"data":[0,0,0,0,0,0,0,0,0,0,0,0,0,0,0,0,0,0,0,0,0,0,0,0,0,0,0,0,0,0,0,0,0,0,0,0,0,0,0,0,0,0,0,0,0,0,0,0,0,0,0,0,0,0,0,0,0,0,-0.8102,-0.8102,0,-0.811,-0.811,-0.811,-0.8049,-0.8048,-0.8046,-0.8044,-0.8055,-0.8057,-0.8059,0,0,0,0,0,0,0,0,0,0,0,0,0,-0.8035,-0.8037,-0.8102,-0.8102,-0.8102,-0.811,-0.811,-0.811,-0.805,-0.8048,-0.8046,-0.8044,-0.8055,-0.8057,-0.8059,0,0,0,0,0,0,0,0,0,0,0,0,0,-0.8056,-0.8037,-0.8102,-0.8073,-0.807,-0.811,-0.811,-0.811,-0.805,-0.8048,-0.8045,-0.8043,-0.8054,-0.8057,-0.8059,-0.8128,0,0,-0.8068,-0.8069,0,0,0,0,0,0,0,0,-0.8055,-0.8059,-0.8077,-0.8075,-0.8072,-0.8076,-0.8091,-0.8116,-0.8051,-0.8058,-0.8044,-0.8041,-0.8064,-0.8066,-0.8073,-0.8129,-0.8129,-0.8068,-0.807,-0.8071,-0.8072,0,0,0,0,0,0,0,-0.8054,-0.8058,-0.8105,-0.8077,-0.8074,-0.806,-0.806,-0.8095,-0.8076,-0.8057,-0.8053,-0.8054,-0.8063,-0.8071,-0.8073,-0.8129,-0.8068,-0.8071,-0.8072,-0.8073,-0.8241,-0.8244,0,0,0,0,0,0,-0.8056,-0.8057,-0.8105,-0.8105,-0.8057,-0.8063,-0.8063,-0.8077,-0.8075,-0.8072,-0.8057,-0.8051,-0.8067,-0.807,-0.8073,-0.8154,-0.8071,-0.8074,-0.8075,-0.8239,-0.8242,-0.8245,0,0,0,0,0,0,-0.8055,-0.8061,-0.8105,-0.808,-0.8084,-0.8067,-0.8083,-0.8079,-0.8087,-0.8074,-0.8071,-0.8069,-0.8065,-0.8069,-0.8115,-0.8154,-0.8075,-0.8078,-0.8235,-0.824,-0.8244,-0.8316,0,0,0,0,0,0,-0.8053,-0.8061,-0.8086,-0.8081,-0.8086,-0.8146,-0.8086,-0.8081,-0.8092,-0.8085,-0.8085,-0.8082,-0.8064,-0.8111,-0.8118,-0.8156,-0.808,-0.8232,-0.8237,-0.8242,-0.831,-0.8322,-0.8333,0,0,0,0,0,-0.8051,-0.8107,-0.8088,-0.8094,-0.8118,-0.8148,-0.8151,-0.8128,-0.8095,-0.8121,-0.8113,-0.8082,-0.8148,-0.8116,-0.8123,-0.8163,-0.8229,-0.8236,-0.8242,-0.8305,-0.832,-0.8332,0,0,0,0,0,0,-0.8118,-0.8106,-0.8085,-0.8141,-0.8146,-0.8138,-0.817,-0.8144,-0.8159,-0.8153,-0.8124,-0.8124,-0.8175,-0.8173,-0.8138,-0.823,-0.8183,-0.8191,-0.8229,-0.8243,-0.8254,-0.8254,-0.8082,0,0,0,0,0,-0.8139,-0.8165,-0.8152,-0.8203,-0.8207,-0.8188,-0.82,-0.8182,-0.8186,-0.8189,-0.8184,-0.819,-0.8212,-0.8227,-0.8246,-0.8309,-0.8309,-0.834,-0.8351,-0.836,-0.8368,-0.8402,-0.8416,-0.8265,-0.8265,-0.8265,0,0,-0.8184,-0.818,-0.8198,-0.8217,-0.8218,-0.8246,-0.819,-0.8222,-0.8242,-0.8193,-0.8236,-0.8233,-0.8238,-0.8292,-0.8316,-0.8293,-0.8409,-0.8368,-0.8376,-0.8379,-0.841,-0.8424,-0.8437,-0.827,-0.8269,-0.8268,0,0,-0.8279,-0.8279,-0.8321,-0.8323,-0.8327,-0.8314,-0.8324,-0.8319,-0.8315,-0.8357,-0.8322,-0.8345,-0.8383,-0.8388,-0.8396,-0.8492,-0.8465,-0.8499,-0.8558,-0.8591,-0.8603,-0.8614,-0.8649,-0.8662,-0.8507,-0.8507,-0.8507,0,-0.8335,-0.8374,-0.8346,-0.838,-0.8389,-0.8345,-0.8388,-0.8392,-0.8402,-0.841,-0.8383,-0.843,-0.843,-0.8485,-0.8509,-0.8516,-0.8527,-0.85,-0.8604,-0.8614,-0.8623,-0.8656,-0.867,-0.8511,-0.8511,-0.851,-0.851,0,-0.8442,-0.847,-0.8503,-0.8513,-0.8526,-0.8564,-0.8543,-0.8559,-0.8539,-0.8529,-0.8573,-0.8571,-0.859,-0.8601,-0.8582,-0.8654,-0.8639,-0.8608,-0.8561,-0.8642,-0.8673,-0.8685,-0.8517,-0.8516,-0.8514,-0.8513,0,0,-0.8582,-0.8574,-0.8588,-0.8591,-0.8591,-0.8612,-0.8648,-0.8665,-0.8681,-0.8688,-0.8719,-0.8751,-0.8723,-0.8731,-0.8712,-0.8741,-0.8818,-0.8707,-0.8706,-0.8729,-0.8898,-0.8922,-0.8937,-0.8799,-0.8802,-0.8803,-0.8898,0,-0.8675,-0.8736,-0.8712,-0.8775,-0.8801,-0.8759,-0.879,-0.8794,-0.8785,-0.8806,-0.8796,-0.882,-0.878,-0.8785,-0.8812,-0.8804,-0.8852,-0.8796,-0.8828,-0.883,-0.883,-0.8953,-0.8979,-0.9068,-0.891,-0.8912,-0.8913,0,-0.8793,-0.8805,-0.8871,-0.8866,-0.8876,-0.8904,-0.8918,-0.8938,-0.8941,-0.8933,-0.8942,-0.8916,-0.8952,-0.8904,-0.8953,-0.8915,-0.8926,-0.8924,-0.8927,-0.893,-0.8878,-0.8961,-0.9096,-0.911,-0.8932,-0.893,-0.8929,0,-0.889,-0.8922,-0.8966,-0.897,-0.8965,-0.8986,-0.8985,-0.8986,-0.8997,-0.9009,-0.9017,-0.9033,-0.9042,-0.9056,-0.9035,-0.9002,-0.9088,-0.9038,-0.9083,-0.9083,-0.9104,-0.9103,-0.9244,-0.9109,-0.9109,-0.9109,-0.9108,0,-0.8998,-0.904,-0.9009,-0.9036,-0.9082,-0.9053,-0.91,-0.9094,-0.9095,-0.912,-0.9085,-0.911,-0.9081,-0.9103,-0.9087,-0.913,-0.9134,-0.9129,-0.9125,-0.9133,-0.9134,-0.9142,-0.9135,-0.9112,-0.9111,-0.9111,-0.911,0,-0.9115,-0.9095,-0.914,-0.9131,-0.913,-0.9164,-0.9157,-0.9182,-0.917,-0.9202,-0.9208,-0.919,-0.9215,-0.9195,-0.9219,-0.9208,-0.9266,-0.9252,-0.9265,-0.9262,-0.9308,-0.9304,-0.946,-0.9479,-0.9331,-0.9332,-0.9333,0,-0.9186,-0.9217,-0.9211,-0.9225,-0.9226,-0.925,-0.9261,-0.9234,-0.9247,-0.9253,-0.9277,-0.9298,-0.9314,-0.9354,-0.9344,-0.9362,-0.9349,-0.9402,-0.9351,-0.9359,-0.9351,-0.935,-0.9353,-0.9413,-0.9414,-0.9416,-0.9417,0,-0.9314,-0.9303,-0.9321,-0.9335,-0.935,-0.936,-0.9367,-0.9381,-0.9353,-0.937,-0.9394,-0.9406,-0.943,-0.9451,-0.9465,-0.9464,-0.9437,-0.9432,-0.9444,-0.9454,-0.946,-0.9459,-0.9294,-0.943,-0.9428,-0.9427,-0.9427,-0.9426,-0.9411,-0.9437,-0.9437,-0.9458,-0.946,-0.9468,-0.949,-0.9481,-0.95,-0.9517,-0.9499,-0.9529,-0.953,-0.9546,-0.9549,-0.9572,-0.955,-0.9566,-0.9571,-0.9576,-0.9583,-0.9456,-0.9574,-0.9574,-0.9573,-0.9573,-0.9573,0,-0.9539,-0.9536,-0.9555,-0.9567,-0.9583,-0.9554,-0.956,-0.9576,-0.9602,-0.9606,-0.9621,-0.9649,-0.9669,-0.9659,-0.9677,-0.9697,-0.9685,-0.9703,-0.9702,-0.9703,-0.9601,-0.959,-0.9713,-0.9713,-0.9713,-0.9713,-0.9713,-0.9713,-0.9607,-0.965,-0.9638,-0.9681,-0.9678,-0.9706,-0.9712,-0.9719,-0.9722,-0.9754,-0.9771,-0.9764,-0.9762,-0.978,-0.9797,-0.9794,-0.9803,-0.9826,-0.9818,-0.9724,-0.971,-0.9697,-0.9686,-0.9827,-0.9828,-0.9918,-0.9919,-0.9919]},{"header":{"parameterUnit":"m.s-1","parameterCategory":1,"la1":30.2991,"la2":30.254,"lo1":-89.0895,"lo2":-89.0444,"dy":0.0017,"dx":0.0017,"nx":28,"ny":28,"refTime":"2023-09-26T09:00:00:Z","depth":0,"parameterNumber":3,"parameterNumberName":"V-component_of_WINDS"},"data":[0,0,0,0,0,0,0,0,0,0,0,0,0,0,0,0,0,0,0,0,0,0,0,0,0,0,0,0,0,0,0,0,0,0,0,0,0,0,0,0,0,0,0,0,0,0,0,0,0,0,0,0,0,0,0,0,0,0,-2.1744,-2.1745,0,-2.1834,-2.1835,-2.1836,-2.1848,-2.1847,-2.1846,-2.1846,-2.1936,-2.194,-2.1943,0,0,0,0,0,0,0,0,0,0,0,0,0,-2.1582,-2.1585,-2.1744,-2.1745,-2.1746,-2.1834,-2.1835,-2.1836,-2.1848,-2.1847,-2.1846,-2.1845,-2.1935,-2.1939,-2.1943,0,0,0,0,0,0,0,0,0,0,0,0,0,-2.166,-2.1585,-2.1744,-2.1763,-2.1765,-2.1833,-2.1835,-2.1836,-2.1849,-2.1847,-2.1846,-2.1845,-2.1934,-2.1939,-2.1944,-2.1998,0,0,-2.1958,-2.196,0,0,0,0,0,0,0,0,-2.1655,-2.1666,-2.1759,-2.1762,-2.1765,-2.1829,-2.1811,-2.1891,-2.1849,-2.1817,-2.1846,-2.1844,-2.1901,-2.1909,-2.1928,-2.2003,-2.2007,-2.1959,-2.1962,-2.1964,-2.1965,0,0,0,0,0,0,0,-2.165,-2.1662,-2.1779,-2.176,-2.1764,-2.1766,-2.1776,-2.1826,-2.1865,-2.182,-2.1821,-2.1831,-2.1903,-2.1924,-2.1931,-2.2008,-2.1959,-2.1963,-2.1966,-2.1968,-2.2132,-2.2134,0,0,0,0,0,0,-2.1641,-2.1657,-2.1776,-2.1782,-2.1706,-2.177,-2.1781,-2.1809,-2.1865,-2.1872,-2.1832,-2.1831,-2.1916,-2.1925,-2.1934,-2.2002,-2.1964,-2.1968,-2.1971,-2.2131,-2.2132,-2.2134,0,0,0,0,0,0,-2.1638,-2.1652,-2.1773,-2.172,-2.1736,-2.1775,-2.1806,-2.1812,-2.1833,-2.1874,-2.1881,-2.1847,-2.1916,-2.1927,-2.1983,-2.2005,-2.197,-2.1975,-2.2129,-2.2131,-2.2133,-2.2139,0,0,0,0,0,0,-2.1633,-2.165,-2.1672,-2.172,-2.1738,-2.182,-2.1807,-2.1814,-2.1841,-2.1841,-2.189,-2.1896,-2.1916,-2.1975,-2.1987,-2.2011,-2.1978,-2.2127,-2.213,-2.2133,-2.2137,-2.2141,-2.2145,0,0,0,0,0,-2.1627,-2.1669,-2.1673,-2.1687,-2.1766,-2.1821,-2.1832,-2.1853,-2.1843,-2.1865,-2.1891,-2.1895,-2.2001,-2.1981,-2.1994,-2.202,-2.2126,-2.2129,-2.2132,-2.2135,-2.214,-2.2144,0,0,0,0,0,0,-2.1622,-2.1676,-2.168,-2.174,-2.1776,-2.1823,-2.1852,-2.1858,-2.1898,-2.1896,-2.192,-2.1931,-2.1986,-2.2009,-2.1985,-2.2077,-2.2062,-2.2069,-2.206,-2.2065,-2.2069,-2.2062,-2.1982,0,0,0,0,0,-2.1627,-2.1668,-2.1713,-2.1761,-2.1779,-2.1812,-2.1837,-2.1851,-2.1889,-2.1904,-2.1935,-2.1972,-2.2014,-2.204,-2.2081,-2.214,-2.2151,-2.2165,-2.2169,-2.2172,-2.2177,-2.221,-2.2217,-2.2145,-2.2145,-2.2145,0,0,-2.164,-2.1674,-2.1699,-2.1761,-2.1791,-2.1832,-2.1825,-2.1869,-2.19,-2.1911,-2.1965,-2.1989,-2.2032,-2.2089,-2.2116,-2.211,-2.2199,-2.2176,-2.2178,-2.2181,-2.2214,-2.2221,-2.2227,-2.2147,-2.2147,-2.2147,0,0,-2.1683,-2.1714,-2.1757,-2.1787,-2.1832,-2.1854,-2.1865,-2.1911,-2.1928,-2.1983,-2.1992,-2.2029,-2.21,-2.213,-2.2155,-2.2211,-2.2215,-2.2223,-2.2244,-2.2276,-2.2281,-2.2286,-2.2306,-2.2313,-2.2228,-2.2228,-2.2228,0,-2.1693,-2.1756,-2.1778,-2.1823,-2.185,-2.1862,-2.1906,-2.1934,-2.199,-2.2009,-2.2001,-2.2091,-2.2121,-2.2186,-2.22,-2.2219,-2.2232,-2.2218,-2.2279,-2.2284,-2.2289,-2.2309,-2.2316,-2.2229,-2.2229,-2.2229,-2.2229,0,-2.1765,-2.1809,-2.1838,-2.1893,-2.1924,-2.1967,-2.1997,-2.2025,-2.2036,-2.2058,-2.2114,-2.215,-2.2199,-2.2215,-2.2226,-2.2282,-2.2277,-2.2274,-2.226,-2.2296,-2.2315,-2.2323,-2.223,-2.223,-2.2229,-2.2229,0,0,-2.1807,-2.1874,-2.1885,-2.191,-2.1961,-2.1995,-2.2039,-2.2087,-2.2111,-2.2149,-2.2187,-2.2248,-2.2245,-2.2273,-2.2288,-2.2316,-2.2358,-2.231,-2.2311,-2.2318,-2.2422,-2.2424,-2.2432,-2.2362,-2.2363,-2.2364,-2.2419,0,-2.1857,-2.1937,-2.1959,-2.2027,-2.2067,-2.208,-2.2119,-2.2154,-2.2176,-2.2214,-2.2238,-2.2281,-2.2275,-2.2292,-2.232,-2.2347,-2.238,-2.2343,-2.2397,-2.2399,-2.2386,-2.2442,-2.2444,-2.2494,-2.2426,-2.2427,-2.2428,0,-2.1925,-2.1966,-2.2037,-2.2084,-2.2102,-2.2136,-2.2182,-2.2218,-2.2258,-2.2273,-2.2304,-2.2316,-2.2363,-2.2347,-2.2412,-2.2386,-2.241,-2.2426,-2.2429,-2.2435,-2.2416,-2.245,-2.251,-2.2517,-2.244,-2.2439,-2.2438,0,-2.1949,-2.2021,-2.2074,-2.2095,-2.215,-2.2174,-2.2198,-2.2237,-2.2265,-2.2305,-2.2323,-2.2368,-2.2392,-2.2427,-2.245,-2.2436,-2.2513,-2.2499,-2.2526,-2.2526,-2.2542,-2.254,-2.2607,-2.2557,-2.2557,-2.2556,-2.2556,0,-2.2002,-2.2046,-2.2085,-2.2118,-2.2167,-2.2192,-2.2239,-2.2264,-2.2299,-2.2336,-2.2349,-2.2384,-2.2413,-2.2452,-2.2471,-2.2522,-2.2532,-2.2545,-2.255,-2.2544,-2.2543,-2.256,-2.2557,-2.2558,-2.2558,-2.2558,-2.2557,0,-2.2037,-2.2065,-2.2123,-2.2171,-2.2184,-2.2218,-2.2259,-2.2291,-2.2314,-2.2361,-2.2373,-2.2409,-2.2455,-2.2482,-2.254,-2.2553,-2.261,-2.2612,-2.2596,-2.2598,-2.2624,-2.2621,-2.2704,-2.2716,-2.2658,-2.2658,-2.2658,0,-2.2069,-2.2103,-2.2155,-2.2181,-2.2205,-2.2247,-2.2275,-2.2301,-2.233,-2.2379,-2.2405,-2.2452,-2.2491,-2.2564,-2.2595,-2.2639,-2.2644,-2.267,-2.265,-2.2644,-2.2644,-2.2642,-2.2646,-2.2673,-2.2673,-2.2674,-2.2674,0,-2.2123,-2.2135,-2.2176,-2.2222,-2.2255,-2.2292,-2.2329,-2.235,-2.2382,-2.2414,-2.2461,-2.2491,-2.2551,-2.2598,-2.2645,-2.2669,-2.2677,-2.268,-2.2689,-2.2683,-2.2672,-2.2679,-2.2605,-2.2678,-2.2677,-2.2677,-2.2677,-2.2677,-2.2157,-2.2188,-2.223,-2.2274,-2.2305,-2.2339,-2.2372,-2.2399,-2.2439,-2.249,-2.2503,-2.2553,-2.2593,-2.2657,-2.2683,-2.2722,-2.2718,-2.2731,-2.2734,-2.2737,-2.2737,-2.2666,-2.2731,-2.2731,-2.2731,-2.2731,-2.2731,0,-2.2212,-2.2239,-2.228,-2.2332,-2.2367,-2.2372,-2.2413,-2.2442,-2.2486,-2.2523,-2.2561,-2.2616,-2.2662,-2.2697,-2.2743,-2.2768,-2.2773,-2.2779,-2.2778,-2.2783,-2.2738,-2.2726,-2.2775,-2.2775,-2.2775,-2.2775,-2.2775,-2.2775,-2.2244,-2.2297,-2.2314,-2.2382,-2.2409,-2.2459,-2.2482,-2.2514,-2.2543,-2.2604,-2.2642,-2.2665,-2.2701,-2.275,-2.2792,-2.2801,-2.2818,-2.2824,-2.2834,-2.2791,-2.2786,-2.2782,-2.2771,-2.2827,-2.2827,-2.2875,-2.2876,-2.2876]}]]